TimeEDT,TemperatureF,Dew PointF,Humidity,Sea Level PressureIn,VisibilityMPH,Wind Direction,Wind SpeedMPH,Gust SpeedMPH,PrecipitationIn,Events,Conditions,WindDirDegrees,DateUTC
12:06 AM,34.0,33.1,96,29.88,1.8,NNE,9.2,-,0.00,,Overcast,30,2013-04-13 04:06:00
12:36 AM,34.0,33.1,96,29.87,2.0,NNE,9.2,-,0.02,,Overcast,20,2013-04-13 04:36:00
12:51 AM,34.0,33.1,96,29.89,2.0,North,10.4,-,0.03,Rain,Light Rain,10,2013-04-13 04:51:00
1:51 AM,33.1,32.0,96,29.85,4.0,NNE,12.7,-,0.01,,Overcast,30,2013-04-13 05:51:00
2:51 AM,34.0,32.0,92,29.83,10.0,North,10.4,-,0.00,,Overcast,10,2013-04-13 06:51:00
3:17 AM,34.0,32.0,92,29.84,10.0,North,13.8,-,N/A,,Overcast,350,2013-04-13 07:17:00
3:51 AM,34.0,32.0,92,29.87,10.0,North,10.4,-,N/A,,Overcast,350,2013-04-13 07:51:00
4:02 AM,34.0,32.0,92,29.86,7.0,North,10.4,-,0.02,Rain,Light Rain,350,2013-04-13 08:02:00
4:40 AM,33.1,30.9,92,29.81,10.0,NNE,10.4,-,0.05,Rain,Light Rain,30,2013-04-13 08:40:00
4:51 AM,33.1,30.9,92,29.81,10.0,North,9.2,-,0.06,Rain,Light Rain,10,2013-04-13 08:51:00
5:10 AM,33.1,30.9,92,29.79,10.0,NNE,10.4,-,0.00,,Overcast,30,2013-04-13 09:10:00
5:51 AM,33.1,30.9,92,29.82,10.0,North,9.2,-,0.00,,Mostly Cloudy,360,2013-04-13 09:51:00
6:51 AM,34.0,30.9,89,29.83,10.0,North,6.9,-,N/A,,Overcast,360,2013-04-13 10:51:00
7:16 AM,34.0,32.0,92,29.84,10.0,NNW,8.1,-,N/A,,Overcast,340,2013-04-13 11:16:00
7:51 AM,35.1,32.0,89,29.85,10.0,NNW,8.1,-,N/A,,Overcast,340,2013-04-13 11:51:00
8:51 AM,36.0,32.0,86,29.84,10.0,North,10.4,-,N/A,,Mostly Cloudy,10,2013-04-13 12:51:00
9:51 AM,37.0,32.0,82,29.84,10.0,North,11.5,-,N/A,,Mostly Cloudy,350,2013-04-13 13:51:00
10:51 AM,39.0,33.1,79,29.86,10.0,NNW,6.9,-,N/A,,Mostly Cloudy,330,2013-04-13 14:51:00
11:51 AM,41.0,34.0,76,29.85,10.0,NNW,3.5,-,N/A,,Mostly Cloudy,340,2013-04-13 15:51:00
12:51 PM,41.0,34.0,76,29.84,10.0,NW,5.8,-,N/A,,Overcast,310,2013-04-13 16:51:00
1:51 PM,44.1,35.1,71,29.84,10.0,NNW,8.1,-,N/A,,Mostly Cloudy,330,2013-04-13 17:51:00
2:51 PM,45.0,34.0,65,29.83,10.0,WNW,5.8,-,N/A,,Mostly Cloudy,290,2013-04-13 18:51:00
3:51 PM,46.0,35.1,66,29.82,10.0,Variable,6.9,-,N/A,,Mostly Cloudy,0,2013-04-13 19:51:00
4:51 PM,48.0,35.1,61,29.83,10.0,Variable,3.5,-,N/A,,Mostly Cloudy,0,2013-04-13 20:51:00
4:58 PM,48.0,35.1,61,29.83,10.0,NW,6.9,-,N/A,,Mostly Cloudy,320,2013-04-13 20:58:00
5:51 PM,46.9,34.0,61,29.86,10.0,WNW,4.6,-,N/A,,Mostly Cloudy,290,2013-04-13 21:51:00
6:51 PM,42.1,36.0,79,29.88,10.0,South,6.9,-,N/A,,Scattered Clouds,180,2013-04-13 22:51:00
7:51 PM,39.9,35.1,83,29.89,10.0,South,5.8,-,N/A,,Mostly Cloudy,190,2013-04-13 23:51:00
8:51 PM,41.0,35.1,79,29.91,10.0,SSW,4.6,-,N/A,,Overcast,200,2013-04-14 00:51:00
9:51 PM,41.0,35.1,79,29.92,10.0,South,3.5,-,N/A,,Overcast,180,2013-04-14 01:51:00
10:51 PM,39.9,36.0,86,29.91,10.0,SW,5.8,-,N/A,,Overcast,220,2013-04-14 02:51:00
11:51 PM,39.9,36.0,86,29.92,10.0,South,3.5,-,N/A,,Overcast,190,2013-04-14 03:51:00